Temp
60 62 62 61 62 62 61 61 61 62 62 62 62 62 62 62 63 63 64 64 61 62 62 61 60 62 60 60 58 60 58 58 55 58 53 52 50 51 50 50 51 51 51
60 60 60 62 62 62 62 62 62 61 62 62 63 62 63 63 63 63 62 64 61 60 61 60 60 61 59 60 59 58 59 59 57 56 58 49 49 47 48 47 49 51 50
62 60 59 60 61 62 62 63 64 63 62 62 62 62 63 63 63 63 63 63 63 62 62 60 61 60 59 59 59 59 58 58 58 56 57 48 49 45 45 46 47 48 51
64 61 59 59 60 60 62 63 63 64 62 62 63 63 63 63 64 64 64 63 62 63 62 62 61 61 60 60 58 57 58 57 56 55 55 47 44 44 47 45 43 46 46
65 65 61 61 61 61 61 62 63 63 63 64 63 63 63 63 65 63 63 63 62 62 62 62 62 60 55 58 61 59 57 56 57 56 53 44 43 39 42 44 44 43 44
65 66 67 64 62 61 61 61 62 62 62 63 63 64 63 65 56 50 58 63 63 62 61 61 61 52 52 48 48 50 56 56 56 54 53 50 47 45 43 41 39 37 36
62 65 67 67 65 64 64 63 62 62 63 62 63 64 64 64 51 48 48 64 62 61 60 60 60 59 52 56 39 39 38 39 38 53 54 48 39 39 40 37 36 35 34
54 54 57 59 64 67 65 64 64 64 63 63 63 63 63 64 50 48 45 57 62 63 62 60 60 57 51 45 38 34 33 33 34 36 34 32 33 35 36 36 34 34 34
47 49 52 56 54 54 63 64 65 64 64 63 63 63 63 63 46 46 46 55 57 40 38 40 42 42 39 40 35 31 30 30 33 34 33 32 33 33 33 33 30 30 29
44 46 49 52 49 49 50 56 65 65 63 62 48 42 39 44 38 41 44 47 36 33 33 34 35 36 36 36 33 31 28 28 29 29 30 31 32 32 31 30 30 28 28
44 46 46 45 44 45 45 45 58 54 41 38 36 36 36 37 38 40 41 41 37 33 32 32 33 34 35 34 34 31 29 30 29 29 29 29 29 29 29 29 30 29 27
41 40 38 38 38 40 41 41 42 41 39 37 35 33 32 33 35 35 36 35 35 32 31 32 32 33 33 33 32 32 31 30 29 28 28 27 26 27 27 28 28 28 29
37 35 34 34 34 34 33 35 37 38 36 34 33 31 30 31 32 33 33 33 32 31 31 31 31 31 31 30 31 30 29 28 27 26 25 24 26 27 28 28 28 29 30
33 32 32 31 31 31 32 32 31 33 33 32 31 29 29 29 28 29 29 29 29 28 27 28 27 26 26 26 26 27 26 26 25 24 23 24 25 25 24 26 24 24 24
31 30 30 30 30 29 29 29 29 30 31 29 30 30 28 26 27 29 29 28 27 27 28 27 25 25 24 24 24 23 23 23 22 22 21 21 22 22 22 23 23 21 17
29 28 28 27 28 28 28 27 30 31 31 31 31 31 30 31 31 32 31 31 31 30 27 24 23 23 23 22 20 20 21 21 21 21 20 19 18 18 17 18 18 15 13
27 27 27 26 26 25 25 25 23 26 29 30 31 31 31 30 30 30 29 28 28 26 22 21 21 20 20 20 19 19 18 19 20 18 17 15 15 15 14 14 14 14 13
27 27 26 25 25 24 24 23 23 21 20 21 26 27 28 28 28 27 26 24 20 22 20 19 18 18 19 18 19 18 17 15 14 14 12 10 9 11 11 11 12 7 11
26 26 26 25 24 23 23 22 22 22 21 20 21 21 22 25 25 25 24 20 18 18 18 17 17 17 17 16 14 13 13 10 8 5 6 8 4 8 6 8 8 7 7
24 25 25 24 23 22 21 20 20 20 19 19 19 19 19 19 16 16 16 16 16 17 17 16 16 14 13 12 10 6 8 6 7 8 0 -0 -4 2 2 3 3 2 8
23 23 23 23 23 22 21 20 19 19 18 17 17 18 19 16 14 14 13 12 12 13 13 13 11 10 9 8 9 6 3 3 5 3 2 2 -8 -1 4 3 2 6 8
23 23 22 20 20 20 21 21 19 18 18 16 15 16 16 15 13 13 12 10 10 11 11 9 9 8 7 7 6 -1 2 1 -2 -2 -3 -3 -1 -1 0 -2 -3 -4 2
20 19 20 20 20 18 17 18 16 15 14 14 14 14 13 11 11 10 9 10 10 9 9 7 5 3 4 3 3 1 2 1 -2 -8 -9 -9 -5 -6 -8 -6 -2 -3 -3
18 17 17 16 15 15 13 13 14 13 13 12 11 11 10 10 8 5 4 2 4 1 1 5 3 3 0 -4 -6 1 -1 -9 -5 -6 -12 -13 -8 -2 -6 -4 -2 -4 1
14 13 13 13 12 10 10 10 10 9 9 8 8 7 9 8 8 3 -1 -5 -4 -4 3 3 -0 -3 -6 -4 -5 -6 -7 -7 -12 -9 -10 -9 -11 -13 -9 -3 -1 2 -3
13 11 10 9 7 7 2 -0 2 3 -0 -2 -0 5 0 -4 1 0 -6 -5 -4 -1 -3 -5 -3 -3 -0 -0 -3 -5 -8 -7 -9 -9 -13 -8 -11 -9 -9 -8 -5 -3 -0
MSLP
1006.72 1007.69 1008.17 1008.46 1008.88 1009.44 1009.84 1010.21 1010.55 1010.98 1011.36 1011.64 1011.98 1012.34 1012.68 1013.10 1013.44 1013.86 1014.04 1014.30 1014.67 1015.13 1015.34 1015.55 1015.65 1015.82 1016.15 1016.39 1016.61 1016.78 1017.11 1017.26 1017.14 1016.94 1017.12 1017.32 1017.64 1017.56 1017.73 1017.86 1018.07 1018.28 1018.38
1005.63 1006.61 1007.54 1008.06 1008.37 1008.64 1008.96 1009.40 1009.82 1010.24 1010.55 1010.70 1011.15 1011.50 1011.83 1012.08 1012.46 1012.60 1012.82 1013.13 1013.60 1013.94 1014.10 1014.58 1014.51 1014.82 1015.12 1015.24 1015.43 1015.67 1015.76 1015.75 1016.13 1015.85 1016.19 1016.58 1016.92 1017.08 1017.20 1017.52 1017.50 1017.74 1017.87
1004.91 1005.60 1006.39 1007.07 1007.59 1007.69 1007.88 1008.33 1008.75 1009.29 1009.56 1009.87 1010.16 1010.21 1010.45 1010.84 1011.27 1011.57 1011.73 1012.05 1012.19 1012.47 1012.82 1013.18 1013.09 1013.74 1013.85 1013.89 1014.18 1014.49 1014.60 1014.76 1014.89 1015.06 1015.07 1015.67 1015.90 1016.30 1016.85 1016.99 1016.93 1017.10 1017.26
1004.05 1004.69 1005.18 1005.62 1006.07 1006.72 1007.34 1007.62 1007.90 1008.14 1008.57 1008.84 1008.86 1009.00 1009.36 1009.70 1009.96 1010.17 1010.35 1010.67 1010.97 1011.19 1011.55 1011.74 1011.88 1012.25 1012.36 1012.63 1013.11 1013.26 1013.37 1013.69 1013.87 1014.11 1014.27 1015.01 1015.51 1015.69 1016.05 1016.25 1016.41 1016.22 1016.29
1003.73 1003.45 1003.74 1004.18 1004.62 1005.12 1005.73 1006.21 1006.81 1007.13 1007.20 1007.56 1007.84 1007.89 1008.20 1008.44 1008.43 1008.72 1009.04 1009.44 1009.90 1010.18 1010.27 1010.41 1010.60 1010.77 1010.96 1011.25 1011.80 1012.07 1012.47 1012.70 1012.91 1012.98 1013.22 1013.87 1014.52 1015.16 1015.01 1014.96 1015.08 1015.42 1015.52
1003.68 1003.26 1002.99 1003.19 1003.75 1004.00 1004.32 1004.75 1005.32 1005.73 1006.05 1006.44 1006.35 1006.51 1006.84 1006.75 1006.81 1007.28 1007.77 1008.21 1008.44 1008.74 1008.78 1009.05 1009.32 1009.60 1009.83 1010.20 1010.56 1010.69 1010.85 1011.35 1011.76 1012.05 1012.16 1012.44 1012.82 1013.12 1013.68 1014.24 1014.85 1015.40 1015.92
1004.36 1003.72 1003.36 1002.95 1002.78 1002.69 1002.98 1003.48 1003.68 1003.86 1004.37 1004.74 1004.98 1005.34 1005.34 1005.45 1005.73 1006.33 1006.73 1007.03 1007.24 1007.39 1007.63 1007.97 1008.22 1008.35 1008.75 1009.38 1010.25 1010.80 1011.26 1011.31 1011.18 1010.97 1011.10 1011.63 1012.42 1012.82 1013.45 1014.24 1014.69 1014.94 1015.63
1005.46 1005.11 1004.50 1003.93 1003.19 1002.29 1001.77 1001.91 1002.09 1002.34 1002.85 1003.05 1003.41 1003.82 1004.20 1004.05 1004.47 1005.07 1005.72 1006.23 1006.12 1006.14 1006.48 1006.66 1006.98 1007.46 1008.04 1008.82 1010.11 1011.24 1012.04 1012.24 1012.04 1011.89 1012.36 1012.95 1013.26 1013.67 1014.17 1014.77 1015.18 1016.34 1016.76
1006.08 1005.71 1005.20 1004.58 1004.17 1003.49 1002.31 1001.06 1000.65 1000.99 1001.40 1001.75 1002.15 1002.89 1003.10 1003.01 1003.39 1003.68 1004.66 1005.19 1005.81 1006.71 1007.37 1007.45 1007.40 1007.57 1007.99 1008.64 1010.06 1011.30 1012.39 1013.25 1013.43 1013.20 1013.23 1013.67 1014.43 1014.88 1014.89 1015.50 1016.49 1017.23 1017.12
1007.35 1006.49 1005.74 1004.97 1004.58 1003.91 1003.18 1001.94 999.84 999.76 1000.01 1000.86 1001.79 1002.47 1003.05 1003.04 1003.46 1003.46 1004.04 1004.48 1005.93 1007.08 1007.97 1008.21 1008.14 1008.13 1008.60 1009.13 1009.84 1011.11 1012.49 1013.55 1013.92 1014.15 1014.50 1014.43 1014.64 1015.22 1016.03 1016.51 1017.17 1017.67 1018.75
1008.52 1007.47 1006.60 1005.96 1005.13 1004.27 1003.15 1001.95 1000.06 999.28 1000.08 1001.14 1002.28 1003.23 1003.57 1003.82 1003.99 1003.88 1003.70 1004.22 1005.46 1006.93 1007.94 1008.74 1009.08 1009.00 1009.22 1009.90 1010.52 1011.78 1012.50 1013.31 1013.64 1013.27 1014.82 1015.76 1016.15 1017.22 1016.80 1017.79 1017.70 1018.25 1018.75
1009.18 1008.43 1007.86 1007.04 1006.07 1004.88 1003.87 1002.89 1001.82 1001.57 1001.20 1002.02 1002.94 1003.94 1004.57 1004.96 1004.62 1004.46 1004.69 1005.13 1006.13 1007.01 1008.47 1009.51 1010.04 1010.32 1010.68 1011.10 1011.53 1012.37 1013.17 1013.47 1013.69 1014.25 1015.20 1015.83 1017.32 1017.88 1017.96 1018.34 1018.69 1019.01 1019.24
1009.82 1009.40 1009.00 1008.17 1007.20 1005.85 1005.13 1004.52 1003.66 1003.13 1003.56 1003.89 1004.10 1005.18 1006.16 1006.48 1006.76 1006.37 1005.84 1006.53 1007.53 1008.13 1009.25 1009.83 1010.77 1011.60 1013.29 1012.41 1012.37 1014.37 1013.51 1013.69 1015.68 1016.01 1016.35 1016.60 1017.50 1017.98 1018.13 1018.67 1018.79 1019.08 1019.25
1010.86 1010.54 1010.16 1009.38 1008.55 1007.28 1006.50 1006.25 1005.95 1005.28 1005.00 1005.73 1006.16 1005.73 1006.75 1007.10 1008.08 1008.64 1008.42 1008.65 1008.27 1009.70 1010.15 1012.26 1012.83 1011.64 1012.75 1015.35 1015.34 1015.56 1014.23 1014.47 1015.89 1016.91 1018.18 1018.28 1018.43 1018.65 1018.95 1018.96 1018.96 1019.29 1019.53
1011.99 1011.68 1011.50 1010.99 1010.31 1009.36 1008.64 1008.20 1008.10 1007.81 1007.29 1007.21 1007.90 1008.80 1007.62 1009.40 1008.04 1009.37 1010.14 1010.29 1010.66 1010.24 1012.26 1010.75 1012.84 1016.14 1013.16 1014.80 1015.12 1015.81 1016.30 1016.83 1017.01 1018.02 1019.03 1019.41 1019.32 1019.30 1019.53 1019.79 1019.75 1019.91 1019.96
1013.21 1013.02 1012.91 1012.54 1012.34 1011.40 1010.87 1010.09 1010.16 1009.94 1009.28 1009.21 1009.40 1010.53 1009.73 1011.69 1009.09 1010.41 1010.65 1011.18 1011.38 1012.53 1013.85 1013.45 1014.08 1014.66 1016.68 1016.38 1017.38 1016.79 1017.28 1018.37 1018.47 1018.94 1020.05 1020.23 1020.07 1020.36 1020.27 1020.38 1020.35 1020.37 1020.49
1014.60 1014.42 1014.19 1013.99 1013.87 1013.19 1013.03 1012.80 1012.14 1012.09 1011.55 1011.18 1011.35 1012.03 1012.37 1013.67 1012.62 1011.16 1012.86 1012.70 1012.59 1013.53 1016.14 1015.94 1017.41 1016.21 1016.91 1017.68 1017.96 1019.01 1019.16 1019.04 1019.52 1019.94 1020.94 1021.36 1021.42 1021.13 1021.01 1021.13 1021.24 1021.20 1021.22
1015.68 1015.52 1015.17 1015.32 1015.39 1015.17 1014.68 1014.51 1014.71 1014.33 1014.09 1014.06 1013.37 1013.56 1014.48 1013.10 1015.52 1014.85 1014.15 1014.23 1014.58 1016.69 1017.78 1016.83 1018.70 1018.22 1018.61 1018.67 1019.49 1019.84 1020.23 1020.29 1020.52 1020.94 1021.81 1022.34 1022.33 1021.92 1021.59 1021.94 1021.94 1021.99 1022.00
1016.52 1016.80 1016.40 1016.40 1016.73 1016.73 1016.42 1016.19 1015.95 1016.04 1016.15 1016.18 1016.13 1015.45 1016.44 1016.84 1016.57 1016.08 1016.81 1016.21 1016.76 1018.00 1018.83 1018.29 1019.13 1019.62 1020.07 1019.92 1020.98 1021.23 1021.44 1021.48 1022.20 1022.61 1022.98 1022.86 1023.02 1022.74 1022.45 1022.60 1022.54 1022.54 1022.32
1017.78 1017.77 1017.69 1017.74 1017.96 1018.30 1018.15 1017.76 1017.63 1017.55 1017.90 1017.76 1017.51 1017.64 1017.88 1018.01 1018.47 1018.78 1019.07 1017.88 1018.30 1019.38 1019.68 1020.47 1020.73 1021.11 1020.96 1021.71 1021.79 1022.29 1022.75 1022.99 1023.06 1023.51 1023.58 1023.51 1023.74 1023.50 1023.26 1023.37 1023.16 1023.03 1022.98
1018.94 1018.94 1018.93 1018.87 1018.97 1019.18 1019.49 1019.42 1019.30 1019.22 1019.22 1019.09 1019.13 1019.48 1019.62 1019.92 1020.60 1020.66 1020.41 1020.12 1020.50 1021.38 1021.69 1021.94 1022.35 1022.44 1022.66 1022.89 1023.24 1023.66 1023.91 1024.13 1024.18 1024.13 1024.18 1024.11 1024.35 1024.13 1023.82 1023.68 1023.65 1023.62 1023.19
1020.18 1020.09 1020.13 1020.08 1020.15 1020.14 1020.32 1020.56 1020.63 1020.68 1020.70 1020.66 1021.03 1021.33 1021.36 1021.58 1021.83 1022.14 1021.88 1021.92 1022.73 1023.22 1023.54 1023.66 1023.75 1023.83 1024.05 1024.00 1024.28 1024.54 1024.82 1024.74 1024.87 1024.89 1025.04 1025.13 1024.54 1024.22 1024.37 1024.39 1024.23 1024.04 1023.47
1021.45 1021.48 1021.36 1021.37 1021.41 1021.58 1021.71 1021.88 1022.03 1022.08 1022.21 1022.32 1022.53 1022.59 1023.03 1023.19 1023.33 1023.39 1023.42 1023.71 1024.13 1024.44 1024.67 1024.59 1024.48 1024.65 1024.83 1024.96 1025.02 1024.87 1024.81 1025.37 1025.78 1025.88 1025.72 1025.36 1025.07 1025.05 1024.65 1024.68 1024.38 1024.17 1023.80
1022.78 1022.76 1022.74 1022.80 1022.90 1023.04 1023.27 1023.45 1023.54 1023.65 1023.69 1023.84 1023.99 1024.24 1024.35 1024.42 1024.59 1024.63 1024.95 1025.19 1025.61 1025.93 1025.55 1024.86 1025.18 1025.31 1025.37 1025.47 1025.53 1025.44 1025.71 1025.80 1025.69 1025.64 1025.78 1025.51 1025.41 1025.18 1024.74 1024.84 1024.31 1024.34 1023.90
1024.19 1024.17 1024.25 1024.29 1024.37 1024.55 1024.73 1024.91 1025.07 1025.05 1025.08 1025.18 1025.27 1025.30 1025.49 1025.48 1025.45 1025.95 1026.45 1026.72 1026.83 1026.50 1025.87 1025.90 1025.91 1025.78 1025.80 1025.89 1025.77 1025.74 1025.74 1025.72 1026.11 1025.73 1025.63 1025.19 1025.54 1025.34 1025.02 1024.77 1024.46 1024.26 1024.04
1025.53 1025.53 1025.57 1025.64 1025.81 1025.88 1026.23 1026.54 1026.56 1026.36 1026.57 1026.46 1026.47 1026.56 1026.64 1026.77 1027.19 1027.68 1027.37 1027.02 1026.96 1026.73 1026.60 1026.24 1025.91 1025.73 1025.81 1025.84 1025.91 1025.99 1026.04 1025.91 1025.80 1025.61 1025.49 1025.51 1025.72 1025.45 1025.07 1024.89 1024.53 1024.24 1023.72
Wind_Speed
18 15 14 14 14 13 13 14 15 15 17 17 13 13 13 14 15 15 14 14 14 14 13 13 15 14 10 9 8 9 10 9 13 10 5 6 5 7 4 6 6 8 7
18 17 16 14 15 16 17 17 17 17 17 18 18 16 16 16 16 18 18 15 15 16 16 16 16 11 13 13 10 14 12 12 11 18 11 6 9 6 6 7 7 7 7
18 18 18 17 17 18 19 17 18 17 18 18 18 21 21 20 19 18 17 17 18 18 17 16 18 15 15 13 13 12 11 10 12 12 13 2 4 3 4 4 6 8 7
16 18 18 19 20 18 17 16 17 18 18 20 20 20 20 20 20 21 21 19 19 19 18 18 18 18 18 17 14 14 13 11 11 11 12 5 4 3 6 5 6 8 8
11 17 19 19 19 19 19 21 18 19 18 18 19 20 20 20 17 21 21 21 21 21 20 19 18 19 20 19 12 15 13 12 12 12 12 4 6 4 9 7 10 6 6
9 17 13 17 18 20 19 20 20 21 21 18 22 20 20 17 22 21 21 19 21 20 19 18 16 15 18 19 20 20 16 16 17 12 12 13 14 10 5 6 5 3 3
10 10 12 13 16 19 20 20 21 22 20 23 22 20 23 21 18 19 23 20 16 16 16 15 13 12 13 11 8 11 9 9 7 13 17 8 3 4 6 4 2 2 4
13 13 14 15 11 14 16 19 20 19 20 20 21 22 20 19 19 20 19 17 17 18 16 16 16 12 9 11 9 9 10 11 8 7 11 9 9 9 9 5 6 5 5
17 16 15 12 13 14 15 17 19 17 18 18 17 18 20 20 13 19 16 14 13 4 5 4 2 5 10 17 13 14 12 12 18 26 27 26 25 23 15 8 7 5 3
18 19 17 15 13 14 14 18 17 15 18 13 4 5 7 4 5 4 12 5 8 6 6 7 10 11 14 15 15 14 13 9 9 10 11 14 15 16 16 9 6 5 2
18 17 16 16 15 13 15 12 13 7 9 9 10 6 7 6 6 7 8 8 9 8 7 7 7 18 21 21 18 10 12 10 12 14 9 8 8 7 7 7 8 5 4
14 15 15 14 11 11 14 11 10 7 7 9 9 7 7 8 10 14 15 15 14 12 11 10 13 25 27 27 19 25 20 12 6 9 8 8 7 6 6 6 7 5 4
12 13 12 13 13 11 13 13 7 7 6 5 7 8 9 9 11 22 25 25 22 16 12 23 29 29 25 21 26 18 12 10 7 8 8 7 6 5 6 5 6 6 4
11 12 11 12 14 15 11 11 10 8 8 7 6 9 9 10 10 9 11 15 24 17 17 14 16 19 19 12 10 10 10 9 9 8 7 6 6 5 5 4 4 5 3
11 11 11 10 12 14 18 14 13 15 12 10 10 8 7 11 11 14 12 10 11 12 12 11 11 5 10 9 9 9 9 9 9 8 6 5 6 6 6 5 5 4 3
10 9 9 8 9 10 11 15 32 30 32 32 28 18 16 17 28 24 23 20 21 16 9 10 10 9 7 9 7 10 8 8 7 8 6 5 5 5 4 5 5 5 4
11 11 9 11 9 9 9 10 12 20 34 32 30 30 29 25 28 30 28 28 25 18 9 10 8 9 9 9 9 7 8 7 7 7 6 6 5 5 5 5 5 5 4
10 13 9 9 8 9 10 10 9 10 11 12 25 26 29 31 23 24 24 19 15 14 8 9 8 8 8 9 7 7 6 6 7 7 6 4 4 4 5 5 5 3 4
10 8 9 10 10 10 9 9 8 9 9 9 9 15 16 25 25 26 21 10 11 9 8 10 8 8 8 9 7 7 7 7 5 3 3 6 4 5 4 4 4 5 4
11 15 11 8 8 8 8 8 9 9 9 9 9 9 8 10 10 11 9 11 11 9 9 9 8 8 8 7 6 4 5 4 5 5 4 4 4 3 3 3 3 3 4
8 9 12 8 7 7 7 8 8 8 8 9 10 11 14 10 9 9 9 10 10 9 8 8 7 7 6 6 6 5 5 4 5 5 5 4 3 4 4 3 3 3 5
7 7 8 8 8 8 8 8 8 8 8 9 9 10 14 9 8 8 9 9 8 8 6 6 6 6 5 6 6 3 5 5 4 4 4 3 4 4 3 2 2 2 3
7 8 8 8 8 9 9 8 7 8 8 8 7 7 7 7 7 8 8 7 7 6 5 5 4 5 5 4 4 3 6 4 2 1 3 3 3 2 2 2 3 3 3
8 8 8 8 7 7 7 7 7 9 8 7 6 6 6 6 6 6 6 5 5 3 3 4 4 5 3 3 3 4 3 2 2 2 2 2 2 4 3 4 3 4 5
8 8 8 7 7 7 7 7 7 7 7 6 6 6 7 6 6 7 5 3 3 4 4 4 2 2 5 8 6 4 4 5 2 3 2 3 3 4 3 3 3 5 5
7 7 6 6 6 6 5 5 5 5 5 4 5 5 3 3 5 4 2 4 4 4 4 3 5 7 7 3 3 2 4 5 4 5 3 2 2 3 3 4 7 4 7
Wind_Direction
187 197 202 201 200 204 205 206 208 209 212 214 209 207 203 206 211 215 216 215 216 223 224 217 224 222 222 223 215 221 230 226 246 252 217 216 221 219 220 216 217 220 228
184 190 200 205 202 206 210 210 204 212 214 214 217 216 219 218 216 219 218 215 214 218 219 220 225 217 219 216 216 223 228 230 235 249 233 194 205 216 215 211 222 229 231
183 187 193 203 209 216 216 212 217 213 216 215 215 220 221 220 221 221 221 220 221 222 222 217 224 217 224 223 223 228 227 228 233 244 250 188 199 152 205 220 212 225 232
181 190 196 198 204 211 219 223 218 217 215 220 220 220 221 221 224 226 223 223 224 226 225 224 223 221 224 227 227 226 228 227 225 233 243 209 204 196 208 211 218 214 216
215 195 200 201 202 203 208 216 220 222 221 221 220 222 220 221 223 219 222 225 228 231 230 229 228 227 225 225 224 230 231 230 233 239 237 192 193 181 203 206 223 195 191
236 240 220 201 200 207 208 208 211 220 224 221 226 225 223 225 225 215 216 223 226 226 228 227 228 224 228 226 224 228 228 222 231 232 232 230 226 216 194 187 166 146 181
337 345 256 233 210 210 209 207 213 216 212 220 226 225 230 230 224 214 214 227 225 226 228 229 228 229 219 223 108 99 57 27 17 252 238 242 143 155 138 135 136 129 128
6 352 348 0 317 245 211 209 215 215 215 217 220 224 228 231 224 219 215 221 231 233 229 228 230 223 197 159 134 97 68 45 26 54 67 67 71 62 64 67 92 63 38
351 345 340 334 342 328 293 221 218 218 216 217 219 223 224 231 214 212 194 215 228 82 52 34 99 124 133 134 123 114 101 84 75 81 83 78 65 58 62 71 60 59 87
340 335 329 339 336 322 310 306 229 217 215 216 139 59 42 119 34 230 211 155 126 114 83 69 76 108 109 120 122 125 108 110 101 80 82 77 71 78 67 67 86 70 49
332 332 340 341 337 336 324 335 294 196 112 113 110 86 74 55 44 38 151 149 144 127 111 98 94 105 109 107 105 104 104 117 106 101 91 74 83 67 77 50 57 71 85
340 345 347 345 348 350 345 347 10 22 105 121 114 88 61 44 62 79 88 97 112 110 102 93 94 100 99 96 98 105 100 96 94 94 95 85 72 59 61 67 62 62 67
1 5 2 3 2 10 11 0 2 37 41 59 88 81 69 57 61 73 91 90 92 96 96 106 94 85 73 83 92 79 99 89 72 71 77 85 83 84 74 62 59 55 58
14 16 13 21 28 30 32 27 20 19 57 55 46 95 91 89 75 66 80 80 96 86 99 78 65 97 88 70 64 69 61 75 77 75 63 62 67 66 66 55 60 39 23
22 23 24 26 36 50 51 44 46 45 52 67 63 38 76 89 71 91 89 82 88 95 106 91 99 53 85 91 76 73 65 64 75 73 70 65 60 59 49 32 34 25 19
35 29 26 32 27 45 56 68 52 55 61 64 66 69 65 72 93 91 85 85 80 71 59 77 80 82 71 74 80 78 77 69 68 72 59 58 60 54 50 35 31 30 27
45 38 37 38 30 29 39 39 66 59 60 57 62 65 66 62 67 73 78 75 75 74 68 67 58 72 88 78 78 68 73 75 69 71 65 52 47 47 41 32 26 22 13
45 45 54 50 44 43 45 53 44 49 54 49 55 66 60 66 59 65 69 73 65 59 71 76 66 62 66 76 70 77 71 62 60 64 66 52 36 46 46 30 20 17 357
44 41 47 50 42 40 41 42 45 58 56 54 51 56 53 61 61 61 60 69 77 72 67 68 67 68 60 61 59 60 63 56 56 57 43 53 33 39 31 20 12 7 357
42 42 49 52 52 42 39 50 54 60 55 53 54 52 49 51 48 44 46 54 61 58 59 63 61 60 63 61 51 43 56 54 54 59 55 49 19 32 30 5 12 6 345
46 45 46 52 57 63 54 51 55 57 59 56 57 58 58 63 60 51 48 51 52 49 51 57 55 54 51 49 52 49 54 57 55 54 45 37 21 16 6 13 9 345 340
42 53 51 51 45 42 53 50 50 55 58 61 59 52 60 59 57 57 56 55 51 51 48 58 66 60 52 55 52 46 65 63 41 40 32 11 19 20 11 343 333 338 335
47 50 49 49 51 52 51 49 53 54 54 56 56 60 57 60 63 59 56 56 56 50 42 69 69 54 53 54 46 50 63 47 46 121 59 26 8 338 340 340 342 333 327
43 43 51 54 50 51 50 50 54 55 57 56 54 65 63 71 65 61 56 47 36 8 25 57 62 75 52 31 38 71 84 61 37 56 88 52 338 342 359 325 319 300 298
41 45 47 44 47 45 48 48 48 53 53 49 48 51 57 49 63 59 42 21 17 20 28 52 71 90 66 90 78 71 33 30 28 1 357 11 343 320 307 303 307 322 308
48 48 44 47 47 50 58 57 33 38 48 41 35 50 46 57 75 90 27 34 32 30 17 8 14 26 104 81 151 112 68 57 35 360 11 357 330 314 335 318 308 300 299